カタログに戻る

GAOFEN 13 DEB

運用中MEO
NORAD 62337·DEBRIS·🇨🇳 China

打ち上げ Oct 11, 2020 から Xichang Satellite Launch Center

Loading…

次のパス (今後24時間)

TLE

最新Source: Space-Track

元期: Sep 13, 2026, 22:49 UTC

1 62337U 20071C   26256.95125662 -.00000422  00000-0  00000-0 0  9997
2 62337   3.1373  79.4147 0643357  54.2478 312.0165  1.00215323  7114

AllMySatでGAOFEN 13 DEBをリアルタイム追跡

Download on the App Store